FW9696 Weather Reports


time (UTC)temp
C
wind
direction
speed
KPH
gust
KPH
rain 1hr
cm
rain 24hr
cm
rain mn
cm
humidity
%
barometer
mb
20260504141044 13 103 6.4 27.4 0.00 0.00 0.00 48 1006.5
20260504140546 13 315 8.0 29.0 0.00 0.00 0.00 48 1006.6
20260504140107 14 169 4.8 29.0 0.00 0.00 0.00 49 1006.7
20260504130544 12 311 4.8 12.9 0.00 0.00 0.00 52 1006.2
20260504120105 11 0 0.0 6.4 0.00 0.00 0.00 63 1007.0
20260504110547 5 0 0.0 1.6 0.00 0.00 0.00 95 1007.5
20260504100549 4 0 0.0 3.2 0.00 0.00 0.00 94 1007.9
20260504081550 4 261 1.6 6.4 0.00 0.00 0.00 93 1007.7
20260504081045 4 0 0.0 4.8 0.00 0.00 0.00 93 1007.6
20260504080547 3 132 1.6 4.8 0.00 0.00 0.00 93 1007.8
20260504050547 2 288 0.0 6.4 0.00 0.00 0.00 83 1008.1
20260504045544 1 341 0.0 4.8 0.00 0.00 0.00 82 1008.2
20260504045049 1 0 0.0 3.2 0.00 0.00 0.00 83 1008.3
20260504044555 1 0 0.0 1.6 0.00 0.00 0.00 82 1008.3
20260504044046 1 0 0.0 4.8 0.00 0.00 0.00 82 1008.3
20260504043546 1 0 0.0 4.8 0.00 0.00 0.00 82 1008.5
20260504043054 1 329 1.6 3.2 0.00 0.00 0.00 82 1008.7
20260504042546 1 0 0.0 1.6 0.00 0.00 0.00 82 1008.7
20260504042047 1 0 0.0 0.0 0.00 0.00 0.00 82 1008.7
20260504041553 1 0 0.0 1.6 0.00 0.00 0.00 82 1008.7
20260504041046 1 0 0.0 3.2 0.00 0.00 0.00 82 1008.8
20260504040548 1 0 0.0 3.2 0.00 0.00 0.00 82 1008.7
20260504040056 1 0 0.0 3.2 0.00 0.00 0.00 83 1008.8
20260504035545 1 0 0.0 3.2 0.00 0.00 0.00 83 1008.7
20260504035047 1 269 0.0 3.2 0.00 0.00 0.00 83 1008.7
20260504034557 1 0 0.0 3.2 0.00 0.00 0.00 83 1008.7
20260504034050 1 0 0.0 4.8 0.00 0.00 0.00 84 1008.7
20260504033547 1 0 0.0 4.8 0.00 0.00 0.00 84 1008.7
20260504033054 1 248 0.0 4.8 0.00 0.00 0.00 84 1008.7
20260504032547 0 0 0.0 3.2 0.00 0.00 0.00 85 1008.7
20260504032049 0 276 0.0 3.2 0.00 0.00 0.00 85 1008.6
20260504031602 0 0 0.0 3.2 0.00 0.00 0.00 85 1008.7
20260504031050 0 299 1.6 3.2 0.00 0.00 0.00 84 1008.7
20260504030545 0 0 0.0 1.6 0.00 0.00 0.00 84 1008.7
20260504030050 0 0 0.0 1.6 0.00 0.00 0.00 83 1008.6
20260504025548 0 0 0.0 1.6 0.00 0.00 0.00 83 1008.7
20260504025046 0 0 0.0 1.6 0.00 0.00 0.00 83 1008.7
20260504024559 0 0 0.0 1.6 0.00 0.00 0.00 83 1008.8
20260504024048 1 0 0.0 3.2 0.00 0.00 0.00 83 1008.9
20260504023551 1 0 0.0 3.2 0.00 0.00 0.00 82 1008.9
20260504023052 1 0 0.0 3.2 0.00 0.00 0.00 82 1008.9
20260504022547 1 0 0.0 3.2 0.00 0.00 0.00 82 1008.8
20260504022047 1 0 0.0 6.4 0.00 0.00 0.00 82 1008.9
20260504021554 1 306 3.2 6.4 0.00 0.00 0.00 81 1008.7
20260504021047 1 306 3.2 4.8 0.00 0.00 0.00 81 1008.8
20260504020547 1 0 0.0 3.2 0.00 0.00 0.00 80 1008.8
20260504020050 1 297 0.0 3.2 0.00 0.00 0.00 80 1008.8
20260504015547 1 0 0.0 4.8 0.00 0.00 0.00 80 1008.9
20260504015047 1 0 0.0 4.8 0.00 0.00 0.00 80 1008.9
20260504014554 1 0 0.0 4.8 0.00 0.00 0.00 80 1008.9
20260504014046 1 0 0.0 3.2 0.00 0.00 0.00 80 1008.8
20260504013545 1 0 0.0 3.2 0.00 0.00 0.00 80 1008.8
20260504013107 1 0 0.0 3.2 0.00 0.00 0.00 80 1008.8
20260504012546 2 0 1.6 3.2 0.00 0.00 0.00 80 1008.7
20260504012048 2 0 0.0 3.2 0.00 0.00 0.00 80 1008.7
20260504011551 2 0 0.0 3.2 0.00 0.00 0.00 79 1008.6
20260504011047 2 315 0.0 3.2 0.00 0.00 0.00 78 1008.5
20260504010545 2 315 0.0 1.6 0.00 0.00 0.00 78 1008.4
20260504010052 2 315 0.0 1.6 0.00 0.00 0.00 78 1008.3
20260504005547 2 0 0.0 1.6 0.00 0.00 0.00 78 1008.3
20260504005048 2 0 0.0 3.2 0.00 0.00 0.00 77 1008.2
20260504004601 3 315 0.0 3.2 0.00 0.00 0.00 76 1008.1
20260504004046 3 315 0.0 3.2 0.00 0.00 0.00 76 1008.1
20260504003546 3 315 1.6 3.2 0.00 0.00 0.00 75 1008.1
20260504003050 3 0 0.0 3.2 0.00 0.00 0.00 75 1008.1
20260504002546 3 315 0.0 3.2 0.00 0.00 0.00 74 1008.0
20260504002049 3 0 0.0 4.8 0.00 0.00 0.00 73 1007.9
20260504001554 4 0 0.0 4.8 0.00 0.00 0.00 72 1007.8
20260504001048 4 0 0.0 4.8 0.00 0.00 0.00 71 1007.8
20260504000546 5 0 0.0 3.2 0.00 0.00 0.00 68 1007.7
20260504000054 5 315 1.6 3.2 0.00 0.00 0.00 71 1007.7
20260503235545 5 0 0.0 3.2 0.00 0.00 0.00 71 1007.6
20260503235048 5 315 0.0 3.2 0.00 0.00 0.00 70 1007.8
20260503234552 6 315 0.0 4.8 0.00 0.00 0.00 67 1007.6
20260503234044 6 315 0.0 4.8 0.00 0.00 0.00 69 1007.6
20260503233547 6 315 1.6 4.8 0.00 0.00 0.00 68 1007.6
20260503233050 6 0 0.0 4.8 0.00 0.00 0.00 65 1007.5
20260503232545 7 0 1.6 4.8 0.00 0.00 0.00 62 1007.6
20260503232045 7 215 0.0 4.8 0.00 0.00 0.00 59 1007.5
20260503231555 7 0 0.0 4.8 0.00 0.00 0.00 61 1007.6
20260503231050 8 299 0.0 4.8 0.00 0.00 0.00 53 1007.5
20260503230547 8 0 0.0 4.8 0.00 0.00 0.00 52 1007.4
20260503230052 8 321 0.0 6.4 0.00 0.00 0.00 51 1007.4
20260503225543 8 0 1.6 6.4 0.00 0.00 0.00 47 1007.4
20260503225047 8 0 0.0 4.8 0.00 0.00 0.00 49 1007.3
20260503224549 8 156 1.6 4.8 0.00 0.00 0.00 47 1007.3
20260503224047 8 0 0.0 4.8 0.00 0.00 0.00 46 1007.2
20260503223546 8 174 0.0 6.4 0.00 0.00 0.00 47 1007.3
20260503223052 8 336 1.6 8.0 0.00 0.00 0.00 49 1007.3
20260503222546 8 0 3.2 9.7 0.00 0.00 0.00 46 1007.4
20260503222047 8 158 3.2 9.7 0.00 0.00 0.00 47 1007.4
20260503221554 8 16 0.0 4.8 0.00 0.00 0.00 47 1007.4
20260503221052 8 170 0.0 6.4 0.00 0.00 0.00 47 1007.4
20260503220545 8 0 1.6 12.9 0.00 0.00 0.00 46 1007.4
20260503220101 8 0 3.2 12.9 0.00 0.00 0.00 48 1007.3
20260503215546 8 169 1.6 14.5 0.00 0.00 0.00 45 1007.4
20260503215047 8 184 4.8 14.5 0.00 0.00 0.00 47 1007.4
20260503214550 9 9 3.2 14.5 0.00 0.00 0.00 47 1007.3
20260503214046 9 223 1.6 8.0 0.00 0.00 0.00 46 1007.3
20260503213544 9 215 1.6 8.0 0.00 0.00 0.00 51 1007.4
20260503213053 8 340 0.0 6.4 0.00 0.00 0.00 49 1007.4
20260503212544 8 223 1.6 9.7 0.00 0.00 0.00 49 1007.4
20260503212044 8 335 1.6 12.9 0.00 0.00 0.00 47 1007.4
20260503211603 9 18 3.2 12.9 0.00 0.00 0.00 48 1007.4
20260503211049 8 189 3.2 9.7 0.00 0.00 0.00 48 1007.4
20260503210545 8 17 0.0 16.1 0.00 0.00 0.00 47 1007.6
20260503210047 8 65 3.2 16.1 0.00 0.00 0.00 50 1007.5
20260503205547 8 88 3.2 8.0 0.00 0.00 0.00 48 1007.6
20260503205046 8 119 3.2 17.7 0.00 0.00 0.00 47 1007.4
20260503204552 8 228 4.8 17.7 0.00 0.00 0.00 49 1007.4
20260503204046 8 155 3.2 11.3 0.00 0.00 0.00 50 1007.5
20260503203547 8 12 4.8 11.3 0.00 0.00 0.00 48 1007.5
20260503203053 8 167 3.2 14.5 0.00 0.00 0.00 51 1007.5
20260503202550 8 152 4.8 14.5 0.00 0.00 0.00 52 1007.5
20260503202045 8 130 4.8 11.3 0.00 0.00 0.00 50 1007.6
20260503201556 8 54 1.6 11.3 0.00 0.00 0.00 49 1007.6
20260503201048 8 305 3.2 11.3 0.00 0.00 0.00 51 1007.5
20260503200545 8 165 3.2 8.0 0.00 0.00 0.00 50 1007.5
20260503200056 8 148 1.6 16.1 0.00 0.00 0.00 49 1007.4
20260503195544 8 137 1.6 16.1 0.00 0.00 0.00 52 1007.5
20260503195045 8 351 1.6 12.9 0.00 0.00 0.00 49 1007.6
20260503194556 8 238 6.4 16.1 0.00 0.00 0.00 48 1007.6
20260503194046 8 192 4.8 16.1 0.00 0.00 0.00 48 1007.7
20260503193546 8 232 4.8 16.1 0.00 0.00 0.00 47 1007.7
20260503193056 8 327 3.2 16.1 0.00 0.00 0.00 48 1007.9
20260503192545 8 0 1.6 14.5 0.00 0.00 0.00 48 1007.7
20260503192045 8 174 4.8 16.1 0.00 0.00 0.00 47 1007.7
20260503191556 8 350 6.4 20.9 0.00 0.00 0.00 49 1007.7
20260503191047 8 131 4.8 20.9 0.00 0.00 0.00 49 1007.7
20260503190549 7 136 4.8 17.7 0.00 0.00 0.00 48 1007.8
20260503190056 8 215 3.2 17.7 0.00 0.00 0.00 48 1008.0
20260503185548 8 190 6.4 20.9 0.00 0.00 0.00 49 1007.9
20260503185047 8 167 4.8 20.9 0.00 0.00 0.00 47 1007.8
20260503184606 8 84 6.4 20.9 0.00 0.00 0.00 47 1007.8
20260503184045 8 273 6.4 16.1 0.00 0.00 0.00 45 1007.7
20260503183544 8 159 6.4 20.9 0.00 0.00 0.00 45 1007.7
20260503183055 8 0 6.4 20.9 0.00 0.00 0.00 44 1007.8
20260503182548 8 96 4.8 17.7 0.00 0.00 0.00 44 1007.9
20260503182046 8 68 6.4 17.7 0.00 0.00 0.00 45 1007.8
20260503181552 8 202 4.8 16.1 0.00 0.00 0.00 48 1007.9
20260503181047 8 144 6.4 14.5 0.00 0.00 0.00 48 1008.0
20260503180546 7 189 1.6 17.7 0.00 0.00 0.00 48 1007.8
20260503180056 7 123 3.2 19.3 0.00 0.00 0.00 46 1007.9
20260503175545 7 80 8.0 22.5 0.00 0.00 0.00 46 1007.8
20260503175045 8 45 6.4 22.5 0.00 0.00 0.00 46 1007.9
20260503174612 8 44 8.0 24.1 0.00 0.00 0.00 45 1007.9
20260503174045 8 360 3.2 24.1 0.00 0.00 0.00 46 1007.8
20260503173545 8 215 6.4 24.1 0.00 0.00 0.00 46 1007.8
20260503173050 8 143 4.8 19.3 0.00 0.00 0.00 45 1007.8
20260503172549 8 92 6.4 19.3 0.00 0.00 0.00 46 1007.9
20260503172046 8 236 6.4 19.3 0.00 0.00 0.00 44 1007.8
20260503171551 8 120 6.4 22.5 0.00 0.00 0.00 46 1007.6
20260503171045 8 351 8.0 25.7 0.00 0.00 0.00 43 1007.6
20260503170545 8 102 6.4 25.7 0.00 0.00 0.00 43 1007.6
20260503150547 7 300 3.2 16.1 0.00 0.00 0.00 52 1008.5